Location: Auckland
(36.8670°S, 174.7670°E)
Time: 20:48:10
(UTC+12:00)

A-11 Canister half - Pass Details

Date: 23 July 2019
Orbit: 1526 x 1683 km, 47.3° (Epoch: 21 August)

Event Time Altitude Azimuth Distance (km) Brightness Sun altitude
Rises 08:40:31 0° 298° (WNW) 4,678 11.3 11.8°
Reaches altitude 10° 08:43:33 10° 297° (WNW) 3,707 10.8 12.3°
Maximum altitude 08:52:56 77° 210° (SSW) 1,601 9.2 13.8°
Drops below altitude 10° 09:02:40 10° 123° (ESE) 3,825 11.4 15.3°
Sets 09:05:50 0° 121° (ESE) 4,834 11.8 15.8°
